Zurück zum Katalog

FENGYUN 1C DEB

AktivSSO
NORAD 29770·DEBRIS·🇨🇳 China

Gestartet May 10, 1999 von Taiyuan Satellite Launch Center

Loading…

Nächste Überflüge (nächste 24 Stunden)

TLE

AktuellSource: Space-Track

Epoche: Sep 14, 2026, 16:32 UTC

1 29770U 99025BL  26257.68912289  .00001794  00000-0  82167-3 0  9995
2 29770  98.8333 338.3448 0062165 198.7261 324.1305 14.21634800 10028

Verfolge FENGYUN 1C DEB in Echtzeit mit AllMySat

Download on the App Store